weather station
Area: 3964 km2
The highest point: Čertův mlýn (1206 m.s.l.)
Total stations: 34
Stations online: 34
Stations offline: 0
Current weather
-2°C

Meteorological map - weather stations in Zlínský

. The meteorological maps show weather information from WARIO weather stations

Weather stations Zlínský

 UpdatesNameStatusTemperatureHumidityWind speedWind direction
28.1.2023 20:42Valašské Meziříčí - Brňov-3.8 °C95.8 %0.6 m/s SW
28.1.2023 20:41Bystřička-2.2 °C84.3 %0.0 m/s E
28.1.2023 20:41Dolní Bečva-2.8 °C92.2 %0.9 m/s E
28.1.2023 20:42Halenkov-2.9 °C76.5 %1.9 m/s E
28.1.2023 20:42Hošťálková-3.0 °C84.7 %1.4 m/s E
28.1.2023 20:42Kateřinice-3.2 °C95.2 %1.1 m/s NE
28.1.2023 20:42Bystřice pod Hostýnem-2.6 °C100.0 %1.6 m/s N
28.1.2023 20:42Kroměříž - Vážany-1.1 °C96.1 %1.4 m/s W
28.1.2023 20:42Kroměříž-1.2 °C89.4 %1.0 m/s W
28.1.2023 20:41Kroměříž-1.1 °C84.7 %0.8 m/s SE
28.1.2023 20:33Lhota u Vsetína-3.0 °C83.8 %1.4 m/s E
28.1.2023 20:42Liptál-3.6 °C87.4 %0.0 m/s NE
28.1.2023 20:41Luhačovice-2.6 °C78.9 %2.3 m/s N
28.1.2023 20:42Pohořelice-2.1 °C79.5 %6.2 m/s NE
28.1.2023 20:41Holešov-1.1 °C100.0 %3.7 m/s N
28.1.2023 20:42Podolí-1.6 °C90.4 %0.8 m/s W
28.1.2023 20:42Vigantice-3.2 °C92.1 %0.9 m/s W
28.1.2023 20:42Vsetín-2.9 °C85.1 %1.6 m/s NE
28.1.2023 20:42Horní Lideč-3.1 °C83.3 %2.2 m/s NE
28.1.2023 20:42Zlín-0.7 °C84.3 %0.0 m/s E
28.1.2023 20:42Uherské Hradiště-1.1 °C98.0 %2.4 m/s NW
28.1.2023 20:42Bystříce pod Hostýnem-2.4 °C93.0 %2.2 m/s NE
28.1.2023 20:35Poličná2.4 °C69.3 %2.2 m/s N
28.1.2023 20:41Zlín-1.1 °C74.5 %1.2 m/s E
28.1.2023 20:41Prusinovice-0.5 °C94.8 %2.2 m/s NW
28.1.2023 20:42Pržno-2.3 °C85.8 %0.7 m/s NW
28.1.2023 20:42Rožnov pod Radhoštěm-4.2 °C91.8 %1.0 m/s NW
28.1.2023 20:42Ratiboř-2.7 °C81.8 %0.8 m/s NE
28.1.2023 20:42Růžďka-3.0 °C85.0 %0.8 m/s NE
28.1.2023 20:42Hutisko-Solanec-4.9 °C88.6 %1.2 m/s E
28.1.2023 20:41Svatý Hostýn-5.3 °C100.0 %0.6 m/s NE
28.1.2023 20:42Valašská Bystřice-3.9 °C82.7 %1.3 m/s W
28.1.2023 20:41Valašské Meziříčí-2.4 °C86.1 %1.7 m/s N
28.1.2023 20:41Zlín-1.7 °C87.1 %0.6 m/s N
Email notifications
Enter your email address to subscribe to notifications about news at warioweather.com. Your email address will not be used for any purpose other than sending these emails and will not be provided to any third party. The subscription can be ended at any time.
All data are only indicative. The portal administrator has no responsibility for potentially incorrect data and related consequences. Publishing or further sharing of content from www.warioweather.com is only allowed with written consent from WANET s.r.o.